Regional Weather Roundup
Issued by NWS Wakefield, VA

Home | Current Version | Previous Version | Graphics & Text | Print | Product List | Glossary On
Versions: 1 2 3 4 5 6 7 8 9 10 11 12 13 14 15 16 17 18 19 20 21 22 23 24 25 26 27 28
000
ASUS41 KAKQ 150915
RWRAKQ

REGIONAL WEATHER ROUNDUP
NATIONAL WEATHER SERVICE WAKEFIELD VA
400 AM EST FRI DEC 15 2017

Note: "fair" indicates few or no clouds below 12,000 feet with no
significant weather and/or obstructions to visibility. * = Denotes
station may not report precipitation (e.g., rain,snow,etc.),
thunder or fog.

VAZ042-051-052>054-056-151000-
NORTHERN VIRGINIA

CITY           SKY/WX    TMP DP  RH WIND       PRES   REMARKS
WASH NATIONAL  CLOUDY    30  11  45 E5        30.13F
DULLES         MOCLDY    23  14  68 CALM      30.12S
FORT BELVOIR   CLOUDY    29  11  45 CALM      30.12F
QUANTICO       CLOUDY    32  15  49 E8        30.14S
FREDERICKSBRG* CLOUDY    31  19  62 CALM      30.11F
STAFFORD*      CLOUDY    29  19  68 CALM      30.15F
WARRENTON      CLOUDY    27  18  67 CALM      30.10F
CULPEPER*      CLOUDY    28  20  72 CALM      30.12F
MANASSAS*      CLOUDY    27  18  69 CALM      30.12F
LEESBURG*      CLEAR     23  19  86 CALM      30.12F
WINCHESTER     CLOUDY    23  18  80 CALM      30.08S
FRONT ROYAL*   CLOUDY    25  16  68 MISG      30.06F
LURAY*         CLOUDY    27  18  69 N3        30.05F
$$

VAZ048-049-060>072-079>083-151000-
CENTRAL AND SOUTH CENTRAL VIRGINIA

CITY           SKY/WX    TMP DP  RH WIND       PRES   REMARKS
RICHMOND       CLOUDY    34  19  54 NE8       30.08F
CHESTERFIELD*  NOT AVBL
PETERSBURG*    PTCLDY    28  18  64 NE5       30.09R
HANOVER        CLOUDY    31  18  58 VRB5      30.11F
TAPPAHANNOCK*  CLOUDY    32  20  60 N5        30.10F
QUINTON*       CLOUDY    31  19  59 N5        30.10R
CHARLOTTSVILLE CLOUDY    30  16  56 NE7       30.08F
GORDONSVILLE*  CLOUDY    28  16  60 CALM      30.09F
ORANGE*        CLOUDY    28  18  64 CALM      30.10F
LOUISA*        CLOUDY    28  16  60 N3        30.13F
BUMPASS*       CLOUDY    30  13  49 CALM      30.10F
FARMVILLE*     CLOUDY    32  23  70 N6        30.07S
CREWE*         CLOUDY    30  20  65 CALM      30.07S
FORT PICKETT*  NOT AVBL
CHASE CITY*    FAIR      30  20  65 NE5       30.04F
CLARKSVILLE*   FAIR      32  21  64 NE3       30.04F
SOUTH HILL*    CLEAR     29  22  73 NE5       30.10F
LAWRENCEVILLE* FAIR      29  20  67 NE3       30.05F
EMPORIA*       CLEAR     30  23  74 MISG        N/A
$$

VAZ088>098-151000-
SOUTHEAST VIRGINIA

CITY           SKY/WX    TMP DP  RH WIND       PRES   REMARKS
NORFOLK        CLEAR     38  26  62 NE16      30.06F
VIRGINIA BEACH PTCLDY    36  26  67 N9        30.05F
NORFOLK NAVAL  PTCLDY    37  23  56 NE10      30.08F
WEST POINT*    CLOUDY   N/A N/A N/A N3        30.12S
SALUDA*        FAIR      33  20  59 NE6       30.10F
NEWPORT NEWS   CLEAR     34  19  54 NE8       30.09S
LANGLEY AFB    CLEAR     34  19  53 NE14      30.07S WCI  25
FORT EUSTIS    CLEAR     34  20  55 NE6       30.06S
WILLIAMSBURG*  CLEAR     32  25  74 CALM      30.09S
HR EXEC AP*    FAIR      35  23  61 NE6       30.07F
FRANKLIN*      CLEAR     31  21  64 NE6       30.07S
US460-WAKEFLD  CLEAR     29  23  78 CALM      30.08R
$$

VAZ020-022-025-037-045-151000-
WEST CENTRAL AND SOUTHWEST VIRGINIA

CITY           SKY/WX    TMP DP  RH WIND       PRES   REMARKS
STAUNTON*      CLOUDY    27  20  75 CALM      30.05S
WAYNESBORO*    CLOUDY    27  17  67 SE9       30.01F
HOT SPRINGS VA CLOUDY    24  18  76 S7        29.88F
LYNCHBURG      CLOUDY    30  19  63 NE8       30.05F
DANVILLE       CLEAR     29  22  75 NE8       30.04F
SOUTH BOSTON*  FAIR      30  19  65 N3        30.05F
MARTINSVILLE   CLEAR     27  21  76 N3        30.05F
ROANOKE        CLOUDY    32  20  61 SE7       30.05S
BLACKSBURG     CLOUDY    29  22  76 SE5       30.00S
DUBLIN*        CLOUDY    27  24  87 CALM      29.99S
MARION*        CLEAR     23  19  87 CALM      29.96F
HILLSVILLE*    CLEAR     26  21  80 CALM      29.92F
RICHLANDS*     FAIR      26  23  89 CALM      29.93S
WISE*          CLOUDY    30  27  86 CALM      29.94S
ABINGDON*      CLEAR     25  23  91 CALM      29.95F
$$

MDZ021>025-VAZ099-100-151000-
SOUTHERN MARYLAND AND THE DELMARVA PENINSULA

CITY           SKY/WX    TMP DP  RH WIND       PRES   REMARKS
PATUXENT RIVER CLOUDY    30  17  58 E9        30.12S
BAY BRIDGE APT CLOUDY    27  10  50 MISG      30.14S
LEONARDTOWN    CLOUDY    30  16  55 NE5       30.13S
DOVER          CLOUDY    24  18  75 N5        30.13S
GEORGETOWN     CLOUDY    29  12  49 N3        30.12F
EASTON         CLOUDY    28   8  44 NE6       30.17F
CAMBRIDGE      PTCLDY    28  10  47 CALM      30.13F
SALISBURY      CLOUDY    27  14  58 N5        30.13F
OCEAN CITY     PTCLDY    28  16  60 N6        30.12F
WALLOPS ISLAND CLOUDY    29  17  61 N8        30.11F
ACCOMACK*      PTCLDY    30  15  54 N7        30.10S
$$

NCZ012>017-030>032-151000-
NORTH CENTRAL AND EASTERN NORTH CAROLINA

CITY           SKY/WX    TMP DP  RH WIND       PRES   REMARKS
ROANOKE RAPIDS FAIR      30  27  86 CALM      30.05S
RALEIGH        CLOUDY    35  27  72 E9        30.01F
ELIZABETH CITY CLEAR     36  34  92 N7        30.04F
AHOSKIE*       CLEAR     31  23  71 N3        30.06R
EDENTON*       CLEAR     36  31  82 NE5       30.04F
CURRITUCK*     CLEAR     40  34  79 NE5       30.05F
KILL DEVIL HLS CLEAR     46  37  70 E3        30.01F
MANTEO         CLEAR     45  38  77 E7        30.03S
CAPE HATTERAS  CLOUDY    48  42  80 NE6       29.99F
TARBORO*       NOT AVBL
GOLDSBORO      CLOUDY    36  30  79 NE5       30.00S
WASHINGTON     CLOUDY    35  31  85 NE5       30.02F
GREENVILLE     CLOUDY    34  30  86 N3        30.04S
NEW BERN       CLOUDY    37  37 100 CALM      30.01F
WILMINGTON     PTCLDY    38  37  97 CALM      29.99S
$$

VAZ048-151000-
ELSEWHERE

CITY           SKY/WX    TMP DP  RH WIND       PRES   REMARKS
HARRISBURG PA  MOCLDY    20  14  77 CALM      30.09F
BALTIMORE      MOCLDY    24  10  55 E5        30.13S
ANNAPOLIS      CLEAR     29  16  58 E5        30.13S
ANDREWS AFB    CLOUDY    27  10  49 E6        30.13F
PHILADELPHIA   MOCLDY    25   6  44 CALM      30.14S
HENDERSON NC   CLOUDY    28  21  72 NE6       30.03S
GREENSBORO     MOCLDY    33  23  66 NE8       29.98F
ROCKY MOUNT    PTCLDY    34  27  75 NE6       30.03S
$$

VAZ100-151000-
MARINE

STATION/POSITION TIME  TEMP    WIND        PRES    WAVE   SWELL
                       AIR SEA DIR/SP/G            HT/PER HT/PER
                 (UTC) (F)     (DEG/KT/KT) (MB)    (FT/S) (FT/S)
BRANDYWINE LGT   0836   29      50/ 11/ 13 1020.9S
CAPE MAY NJ      0836   27 40   50/  4/  5 1020.2F
LEWES DE         0836   30 42   60/  8/ 10 1020.3F
15NM E FENWICK I 0850   35 52  360/  8/ 12 1020.0F   3/ 5   2/ 5
OCEAN-CITY-INLET 0836   31 45  360/  8/ 10 1020.4F
WACHAPREAGUE VA  0836   30 38   20/  5/ 10 1019.1F
THOMAS POINT MD  0900   29 44   90/  9/ 11   N/A
GOOSES REEF MD   0900   30 43  110/ 10/ 14 1020.6    1/ 2
COVE POINT MD    0836   30      80/ 11/ 14 1020.9R
SOLOMONS ISLAND  0836   31 44   40/  7/  9 1019.9R
BISHOPS HEAD MD  0836   29 36   30/ 11/ 12 1020.5S
PINEY POINT MD   0848           90/  8/  9   N/A
POTOMAC MD       0900   33 46   60/ 12/ 16 1019.3    1
CAMBRIDGE MD     0842   29 39              1020.9F
LEWISETTA VA     0836   34 41   80/ 12/ 16 1019.7F
RAPPAHANNOCK LGT 0836           30/ 17/ 18 1019.5F
STINGRAY PT      0900   35 45   70/ 14/ 19 1019.3    2/ 3
YORK RVR RNG VA  0836   36      60/ 16/ 19 1019.2F
YORKTOWN VA      0836   36 46   60/ 15/ 18 1018.4F
JAMESTOWN VA     0900      44   80/  4/  6   N/A     0
DOMINION TERM VA 0848   36      40/  4/  7 1018.4F
KIPTOPEKE VA     0836      44   30/  6/  8   N/A
CAPE HENRY VA    0836   38      20/ 17/ 20   N/A
WILLOUBY STN VA  0848           40/ 17/ 20 1017.9F
S CRANEY ISL VA  0836   38      50/ 14/ 18 1017.9F
CAPE HENRY BUOY  0900      53                N/A     3/ 5
1ST LANDING BUOY 0900   37 47   50/ 16/ 19 1018.0    2/ 3
CAPE CHARLES BUO 0851      51                N/A     3/ 4
64NM E OF VA BCH 0850   47 59   60/ 12/ 14 1017.6S   4/ 7   3/ 7
DUCK PIER NC     0836   48 52   70/ 12/ 15 1016.2F
44100 DUCK FRF   0845      54                N/A     4/ 6
44056 DUCK FRF   0900      55                N/A     4/ 5
OREGON INLET NC  0836   48 44   60/  6/  9 1016.1F
HATTERAS NC      0836   49 53   50/  5/  8 1015.2F
DIAMOND SHLS NC  0850   59 74   70/  4/ 10 1015.3F   4/ 6   3/ 6
CAPE LOOKOUT NC  0900           10/  6/  7 1015.7S
$$




USA.gov is the U.S. government's official web portal to all federal, state and local government web resources and services.